Onweer radar Meer informatie blitzortung!


Regen radar Meer informatie rain snow radar


Bezoek onze andere website:

Template documentation
and downloads

And another site



15 daagse weersverwachting Glasgow (GB)

  • Overzicht
  • Per uur
  • 15 dagen
  • Extra
  • Vergelijk
  • Kaarten
  • Dagkaart
  • Meer »
  • Info
  • Statistieken
  • Directe link
    Temp 6h Neerslag Wind  
 04:33     22:04    Daglengte: 17:31 Vandaag
19:00
15°
 
4
 04:33     22:05    Daglengte: 17:32 Morgen
01:00
12°
3.3 mm
3
warningclass
07:00
11°
1.6 mm
5
13:00
15°
4.1 mm
7
19:00
14°
10.9 mm
6
 04:33     22:05    Daglengte: 17:32 Dinsdag 18 Jun
01:00
11°
2.9 mm
2
07:00
11°
 
4
13:00
15°
 
6
19:00
15°
 
4
 04:33     22:05    Daglengte: 17:32 Woensdag 19 Jun
01:00
11°
 
2
07:00
11°
 
1
13:00
15°
14.7 mm
3
Locatie info
Region: Scotland
Latitude: 55.8578°N
Longitude: -4.2425°E
40 masl
Postcode: G1 1
Temp/Neerslag /Baro Onweer/Dauwpunt
    Temp Baro 1h Neerslag Dauwpunt Wind UV Bewolking  
 04:33     22:04    Daglengte: 17:31 Vandaag
19:00
15°
1008.2 hPa
48%
7.5°
4
Windvlaag: 2.5 m/s
61%
20:00
14°
1008.0 hPa
19%
8.2°
3
Windvlaag: 2.6 m/s
56%
21:00
13°
1007.8 hPa
20%
8.7°
3
Windvlaag: 2.3 m/s
74%
22:00
12°
1007.5 hPa
82%
9.1°
2
Windvlaag: 1.9 m/s
77%
23:00
12°
1006.9 hPa 1.2 mm
82%
9.8°
3
Windvlaag: 1.3 m/s
86%
 04:33     22:05    Daglengte: 17:32 Morgen
00:00
11°
1006.3 hPa 1.1 mm
82%
9.9°
3
Windvlaag: 0.5 m/s
89%
01:00
12°
1006.0 hPa 1.0 mm
82%
9.9°
3
Windvlaag: 0.8 m/s
51% warningclass
02:00
12°
1006.1 hPa 0.8 mm
74%
10.1°
5
Windvlaag: 4.7 m/s
49%
03:00
11°
1006.2 hPa 0.8 mm
75%
9.8°
6
Windvlaag: 4.9 m/s
40%
04:00
11°
1006.8 hPa
68%
9.4°
5
Windvlaag: 4.7 m/s
41%
05:00
11°
1007.1 hPa
64%
9.4°
5
Windvlaag: 4.5 m/s
44%
06:00
11°
1007.4 hPa
68%
9.3°
5
Windvlaag: 4.5 m/s
67%
07:00
11°
1007.7 hPa
69%
9.6°
5
Windvlaag: 4.8 m/s
46%
08:00
12°
1007.7 hPa
72%
10.0°
5
Windvlaag: 4.7 m/s
26%
09:00
13°
1007.8 hPa
76%
10.3°
5
Windvlaag: 4.9 m/s
32%
10:00
14°
1008.0 hPa
78%
10.7°
6
Windvlaag: 4.7 m/s
26%
11:00
14°
1008.0 hPa 1.0 mm
75%
10.7°
6
Windvlaag: 4.8 m/s
47%
12:00
15°
1007.9 hPa 1.6 mm
79%
10.1°
6
Windvlaag: 4.8 m/s
38%
13:00
15°
1008.0 hPa 1.5 mm
82%
10.9°
7
Windvlaag: 5 m/s
36%
14:00
16°
1007.9 hPa 1.8 mm
81%
10.7°
7
Windvlaag: 5.7 m/s
28%
15:00
16°
1007.7 hPa 1.5 mm
81%
9.8°
8
Windvlaag: 6 m/s
54%
16:00
15°
1008.1 hPa 1.7 mm
82%
9.5°
8
Windvlaag: 6 m/s
52% warningclass
17:00
15°
1008.2 hPa 1.3 mm
82%
9.5°
8
Windvlaag: 5.6 m/s
26% warningclass
18:00
15°
1008.4 hPa 1.4 mm
82%
9.6°
7
Windvlaag: 5.9 m/s
69%
19:00
14°
1008.9 hPa 3.3 mm
82%
9.3°
6
Windvlaag: 5.2 m/s
59%
20:00
13°
1009.2 hPa 2.9 mm
78%
8.9°
5
Windvlaag: 3.6 m/s
34%
21:00
13°
1009.5 hPa
79%
9.1°
4
Windvlaag: 3.1 m/s
38%
22:00
12°
1010.0 hPa
78%
9.2°
3
Windvlaag: 2.6 m/s
22%
23:00
12°
1010.1 hPa
76%
9.7°
3
Windvlaag: 1.9 m/s
31%
 04:33     22:05    Daglengte: 17:32 Dinsdag 18 Jun
00:00
11°
1010.2 hPa
72%
10.0°
3
Windvlaag: 3 m/s
22%
01:00
11°
1010.2 hPa
76%
9.9°
2
Windvlaag: 3.2 m/s
15%
02:00
11°
1010.0 hPa
77%
9.7°
3
Windvlaag: 3.4 m/s
31%
03:00
11°
1009.9 hPa
76%
9.5°
3
Windvlaag: 4.4 m/s
20%
04:00
11°
1009.9 hPa
75%
9.2°
3
Windvlaag: 4 m/s
14%
05:00
10°
1009.8 hPa
72%
9.2°
3
Windvlaag: 4.1 m/s
22%
06:00
11°
1009.9 hPa
65%
9.0°
4
Windvlaag: 4 m/s
17%
07:00
11°
1009.9 hPa
66%
9.5°
4
Windvlaag: 4.6 m/s
52%
08:00
12°
1010.0 hPa
16%
9.3°
5
Windvlaag: 4.9 m/s
43%
09:00
13°
1010.1 hPa
21%
9.4°
6
Windvlaag: 4.9 m/s
36%
10:00
13°
1010.3 hPa
82%
8.8°
6
Windvlaag: 4.9 m/s
34%
11:00
14°
1010.4 hPa
35%
8.4°
6
Windvlaag: 4.3 m/s
28%
12:00
15°
1010.4 hPa
54%
8.3°
6
Windvlaag: 4.2 m/s
26%
13:00
15°
1010.4 hPa
17%
7.9°
6
Windvlaag: 3.9 m/s
29%
14:00
15°
1010.4 hPa
17%
8.2°
6
Windvlaag: 3.9 m/s
35%
15:00
15°
1010.4 hPa
17%
8.2°
6
Windvlaag: 3.3 m/s
28%
16:00
15°
1010.1 hPa
22%
7.9°
6
Windvlaag: 3.2 m/s
66%
17:00
15°
1009.9 hPa
72%
8.1°
5
Windvlaag: 3 m/s
56%
18:00
15°
1009.9 hPa
72%
8.6°
5
Windvlaag: 2.9 m/s
55%
19:00
15°
1009.8 hPa
68%
9.0°
4
Windvlaag: 2.3 m/s
62%
20:00
14°
1010.0 hPa
34%
9.0°
3
Windvlaag: 1.8 m/s
53%
21:00
14°
1010.0 hPa
88%
9.2°
3
Windvlaag: 1.6 m/s
37%
22:00
12°
1010.2 hPa
81%
9.5°
2
Windvlaag: 1.6 m/s
79%
23:00
12°
1010.2 hPa
52%
9.8°
2
Windvlaag: 1.5 m/s
92%
 04:33     22:05    Daglengte: 17:32 Woensdag 19 Jun
00:00
11°
1010.0 hPa
88%
9.9°
2
Windvlaag: 1.5 m/s
71%
01:00
11°
1009.8 hPa
39%
9.8°
2
Windvlaag: 1.3 m/s
86%
02:00
10°
1009.4 hPa
70%
9.7°
1
Windvlaag: 0.9 m/s
97%
03:00
10°
1009.0 hPa
22%
9.5°
1
Windvlaag: 0.7 m/s
91%
04:00
10°
Voelt als: 9.6°
1008.7 hPa
21%
9.4°
1
Windvlaag: 0.6 m/s
95%
05:00
10°
1008.5 hPa
21%
9.5°
1
Windvlaag: 0.7 m/s
93%
06:00
10°
1008.3 hPa
22%
9.7°
1
Windvlaag: 0.9 m/s
90%
07:00
11°
1008.2 hPa
21%
9.8°
1
Windvlaag: 0.8 m/s
89%
08:00
12°
1007.9 hPa
21%
10.1°
1
Windvlaag: 3.2 m/s
92%
09:00
13°
1007.6 hPa 4.9 mm
22%
10.4°
1
Windvlaag: 3 m/s
89%
10:00
13°
1007.3 hPa 4.9 mm
22%
10.6°
1
Windvlaag: 3.1 m/s
85%
11:00
14°
1006.8 hPa 4.9 mm
78%
10.8°
2
Windvlaag: 3.6 m/s
83%
12:00
15°
1006.5 hPa
95%
11.1°
2
Windvlaag: 3.5 m/s
74%
13:00
15°
1006.1 hPa
99%
11.3°
3
Windvlaag: 2.1 m/s
67%
14:00
16°
1006.0 hPa 4.8 mm
100%
11.1°
3
Windvlaag: 3.8 m/s
74%
15:00
15°
1005.7 hPa 4.9 mm
100%
10.9°
3
Windvlaag: 4.5 m/s
69%
16:00
15°
1005.4 hPa 5.1 mm
100%
10.5°
3
Windvlaag: 4.4 m/s
46%
17:00
15°
1005.2 hPa 5.1 mm
100%
10.2°
3
Windvlaag: 4.1 m/s
54%
18:00
15°
1004.9 hPa 5.0 mm
100%
10.0°
4
Windvlaag: 4.8 m/s
52%
Temp/Neerslag /Baro Onweer/Dauwpunt
    Temp Baro Neerslag Dauwpunt Wind Bewolking  
 04:33     22:04    Daglengte: 17:31 Vandaag
19:00
15°
1008.2 hPa   7.5°
4
61%
22:00
12°
1007.5 hPa   9.1°
2
77%
 04:33     22:05    Daglengte: 17:32 Morgen
01:00
12°
1006.0 hPa 3.3 mm 9.9°
3
51% warningclass
04:00
11°
1006.8 hPa 1.6 mm 9.4°
5
41%
07:00
11°
1007.7 hPa   9.6°
5
46%
10:00
14°
1008.0 hPa   10.7°
6
26%
13:00
15°
1008.0 hPa 4.1 mm 10.9°
7
36%
16:00
15°
1008.1 hPa 4.9 mm 9.5°
8
52% warningclass
19:00
14°
1008.9 hPa 6.0 mm 9.3°
6
59%
22:00
12°
1010.0 hPa 2.9 mm 9.2°
3
22%
 04:33     22:05    Daglengte: 17:32 Dinsdag 18 Jun
01:00
11°
1010.2 hPa   9.9°
2
15%
04:00
11°
1009.9 hPa   9.2°
3
14%
07:00
11°
1009.9 hPa   9.5°
4
52%
10:00
13°
1010.3 hPa   8.8°
6
34%
13:00
15°
1010.4 hPa   7.9°
6
29%
16:00
15°
1010.1 hPa   7.9°
6
66%
19:00
15°
1009.8 hPa   9.0°
4
62%
22:00
12°
1010.2 hPa   9.5°
2
79%
 04:33     22:05    Daglengte: 17:32 Woensdag 19 Jun
01:00
11°
1009.8 hPa   9.8°
2
86%
04:00
10°
Voelt als: 9.6°
1008.7 hPa   9.4°
1
95%
07:00
11°
1008.2 hPa   9.8°
1
89%
10:00
13°
1007.3 hPa 9.8 mm 10.6°
1
85%
13:00
15°
1006.1 hPa 4.9 mm 11.3°
3
67%
16:00
15°
1005.4 hPa 14.8 mm 10.5°
3
46%
19:00
15°
1004.7 hPa 15.1 mm 9.7°
4
39%
22:00
12°
1005.4 hPa 13.8 mm 9.6°
3
72%
 04:33     22:06    Daglengte: 17:33 Donderdag 20 Jun
01:00
11°
1005.2 hPa 13.9 mm 9.4°
2
80%
04:00
11°
1004.8 hPa 14.1 mm 9.1°
3
82%
07:00
11°
1004.4 hPa 14.2 mm 9.1°
4
83%
10:00
12°
1005.2 hPa 14.3 mm 9.1°
5
68%
13:00
13°
1006.0 hPa 14.8 mm 9.1°
6
52%
16:00
12°
1006.5 hPa 15.5 mm 9.1°
6
53%
19:00
12°
1007.0 hPa 16.0 mm 8.8°
6
54%
22:00
10°
1008.6 hPa 16.0 mm 8.4°
5
54%
 04:33     22:06    Daglengte: 17:33 Vrijdag 21 Jun
01:00
Voelt als: 6.9°
1010.2 hPa 16.0 mm 8.0°
4
55%
04:00
Voelt als: 7.2°
1011.6 hPa 16.0 mm 7.7°
4
51%
07:00
10°
Voelt als: 7.7°
1012.9 hPa 16.0 mm 7.4°
4
46%
10:00
12°
1014.4 hPa 16.2 mm 8.0°
5
48%
13:00
13°
1016.0 hPa 16.2 mm 8.6°
5
50%
16:00
13°
1017.2 hPa 16.3 mm 7.7°
5
40%
19:00
13°
1018.5 hPa 16.3 mm 6.7°
5
30%
22:00
10°
1020.2 hPa 16.3 mm 6.5°
4
19%
 04:34     22:06    Daglengte: 17:32 Zaterdag 22 Jun
01:00
Voelt als: 6.2°
1022.0 hPa 16.3 mm 6.1°
2
9%
04:00
Voelt als: 7.7°
1022.8 hPa 16.3 mm 6.9°
2
17%
07:00
10°
Voelt als: 9.7°
1023.6 hPa 16.3 mm 7.9°
1
24%
10:00
13°
1024.1 hPa 16.3 mm 7.6°
2
57%
13:00
15°
1024.5 hPa 16.7 mm 6.4°
2
89%
16:00
16°
1024.2 hPa 17.6 mm 6.3°
2
79%
19:00
16°
1023.9 hPa 18.1 mm 6.1°
2
70%
22:00
14°
1024.5 hPa 18.4 mm 7.2°
1
59%
 04:34     22:06    Daglengte: 17:32 Zondag 23 Jun
01:00
11°
1025.0 hPa 18.4 mm 7.5°
1
49%
04:00
11°
1025.0 hPa 18.4 mm 7.9°
1
65%
07:00
11°
1025.0 hPa 18.4 mm 8.5°
1
80%
10:00
14°
1024.9 hPa 18.6 mm 8.8°
1
77%
13:00
17°
1024.8 hPa 20.2 mm 8.2°
1
75%
16:00
17°
1024.6 hPa   9.0°
2
70%
19:00
16°
1024.3 hPa 45.3 mm 9.8°
3
66%
 04:34     22:06    Daglengte: 17:32 Maandag 24 Jun
01:00
11°
1025.8 hPa 48.8 mm 9.0°
3
37%
07:00
11°
1026.4 hPa 58.7 mm 9.3°
4
60%
13:00
17°
1026.3 hPa 71.3 mm 9.5°
3
24%
19:00
18°
1026.0 hPa 83.2 mm 9.0°
2
30%
 04:35     22:06    Daglengte: 17:31 Dinsdag 25 Jun
01:00
11°
1027.6 hPa 92.8 mm 8.2°
2
92%
07:00
12°
1027.3 hPa 106.0 mm 9.1°
1
52%
13:00
20°
1027.2 hPa 109.4 mm 10.1°
3
67%
19:00
19°
1026.6 hPa 114.0 mm 11.6°
4
2%
 04:35     22:06    Daglengte: 17:31 Woensdag 26 Jun
01:00
11°
1027.4 hPa 116.5 mm 9.6°
2
1%
07:00
10°
Voelt als: 8.7°
1014.7 hPa 116.7 mm 6.7°
3
1%
13:00
16°
1024.0 hPa 0.2 mm 9.0°
2
37%
19:00
16°
1022.8 hPa 0.3 mm 10.0°
2
54%
 04:36     22:06    Daglengte: 17:30 Donderdag 27 Jun
01:00
Voelt als: 9.0°
1022.2 hPa 0.4 mm 7.6°
1
55%
07:00
11°
1020.4 hPa 0.6 mm 8.8°
1
59%
13:00
15°
1019.3 hPa 0.8 mm 10.4°
2
64%
19:00
15°
1017.3 hPa 1.5 mm 11.0°
1
66%
 04:36     22:06    Daglengte: 17:30 Vrijdag 28 Jun
01:00
10°
1016.3 hPa 1.3 mm 9.1°
1
59%
07:00
11°
1014.9 hPa 1.1 mm 10.0°
2
68%
13:00
15°
1014.7 hPa 0.9 mm 11.2°
3
68%
19:00
16°
1013.9 hPa 1.0 mm 11.8°
3
67%
 04:37     22:05    Daglengte: 17:28 Zaterdag 29 Jun
01:00
10°
1014.0 hPa 0.8 mm 9.3°
2
51%
07:00
12°
1013.2 hPa 0.7 mm 10.1°
2
48%
13:00
16°
1012.9 hPa 0.7 mm 11.4°
3
55%
19:00
16°
1012.1 hPa 0.8 mm 11.6°
3
62%
 04:38     22:05    Daglengte: 17:27 Zondag 30 Jun
01:00
10°
1011.9 hPa 0.7 mm 9.2°
1
60%
07:00
12°
1010.5 hPa 1.0 mm 10.5°
1
64%
13:00
16°
1010.5 hPa 1.3 mm 11.6°
2
65%
19:00
15°
1010.4 hPa 1.9 mm 11.5°
2
56%
 04:39     22:05    Daglengte: 17:26 Maandag 01 Jul
01:00
10°
Voelt als: 9.7°
1011.0 hPa 0.7 mm 8.8°
1
39%
07:00
11°
1011.0 hPa 0.5 mm 9.6°
1
52%
13:00
16°
1011.4 hPa 0.7 mm 10.8°
3
55%
  CAPE Lifted Index Hail Supercell Tornado SRH 3km CL BTM PRES CL TOP PRES Swiss DWD icon SMHI TS
 04:33     22:04    Daglengte: 17:31 Vandaag
19:00 91 J/kg 0.8 K 0 % 0 % 0 % 0 m²/s² 0 0 2.69 3
20:00 94 J/kg 0.7 K 0 % 0 % 0 % 0 m²/s² 0 0 2.59 3
21:00 117 J/kg 0.4 K 0 % 0 % 0 % 0 m²/s² 0 0 1.57 3
22:00 86 J/kg 0.1 K 0 % 0 % 0 % 0 m²/s² 0 0 1.09 80
23:00 45 J/kg 1.4 K 0 % 0 % 0 % 0 m²/s² 0 0 1.7 61
 04:33     22:05    Daglengte: 17:32 Morgen
00:00 0 J/kg -0.7 K 0 % 0 % 0 % 0 m²/s² 0 0 -0.28 80
01:00 139 J/kg -0.6 K 0 % 0 % 0 % 0 m²/s² 0 0 1.35 95
02:00 189 J/kg 0.0 K 0 % 0 % 0 % 0 m²/s² 0 0 1.44 3
03:00 66 J/kg 1.5 K 0 % 0 % 0 % 0 m²/s² 0 0 3.9 80
04:00 19 J/kg 1.9 K 0 % 0 % 0 % 0 m²/s² 0 0 4.84 2
05:00 43 J/kg 1.8 K 0 % 0 % 0 % 0 m²/s² 0 0 4.5 3
06:00 57 J/kg 2.0 K 0 % 0 % 0 % 0 m²/s² 0 0 4.25 3
07:00 71 J/kg 1.9 K 0 % 0 % 0 % 0 m²/s² 0 0 4.09 3
08:00 95 J/kg 1.8 K 0 % 0 % 0 % 0 m²/s² 0 0 3.99 3
09:00 116 J/kg 1.3 K 0 % 0 % 0 % 0 m²/s² 0 0 3.79 2
10:00 119 J/kg 0.8 K 0 % 0 % 0 % 0 m²/s² 0 0 3.29 2
11:00 149 J/kg 0.4 K 0 % 0 % 0 % 0 m²/s² 0 0 2.68 2
12:00 197 J/kg -0.1 K 0 % 0 % 0 % 0 m²/s² 0 0 2.24 80
13:00 257 J/kg -0.4 K 0 % 0 % 0 % 0 m²/s² 0 0 1.61 2
14:00 274 J/kg -0.5 K 0 % 0 % 0 % 0 m²/s² 0 0 1.45 2
15:00 355 J/kg -1.2 K 0 % 0 % 0 % 0 m²/s² 0 0 0.21 2
16:00 404 J/kg -1.8 K 0 % 0 % 0 % 0 m²/s² 0 0 0.03 95
17:00 474 J/kg -2.2 K 0 % 0 % 0 % 0 m²/s² 0 0 -0.73 95
18:00 477 J/kg -2.0 K 0 % 0 % 0 % 0 m²/s² 0 0 -1.07 80
19:00 18 J/kg 1.5 K 0 % 0 % 0 % 0 m²/s² 0 0 1.77 80
20:00 11 J/kg 0.2 K 0 % 0 % 0 % 0 m²/s² 0 0 1.19 80
21:00 123 J/kg -0.5 K 0 % 0 % 0 % 0 m²/s² 0 0 0.43 80
22:00 25 J/kg 0.2 K 0 % 0 % 0 % 0 m²/s² 0 0 3.23 2
23:00 74 J/kg -0.1 K 0 % 0 % 0 % 0 m²/s² 0 0 2.78 2
 04:33     22:05    Daglengte: 17:32 Dinsdag 18 Jun
00:00 65 J/kg 0.3 K 0 % 0 % 0 % 0 m²/s² 0 0 3.18 2
01:00 75 J/kg 0.4 K 0 % 0 % 0 % 0 m²/s² 0 0 3.28 2
02:00 106 J/kg 0.6 K 0 % 0 % 0 % 0 m²/s² 0 0 5.46 80
03:00 92 J/kg 1.7 K 0 % 0 % 0 % 0 m²/s² 0 0 6.8 2
04:00 19 J/kg 4.2 K 0 % 0 % 0 % 0 m²/s² 0 0 9.18 2
05:00 20 J/kg 4.2 K 0 % 0 % 0 % 0 m²/s² 0 0 8.46 2
06:00 0 J/kg 5.7 K 0 % 0 % 0 % 0 m²/s² 0 0 9.99 2
07:00 0 J/kg 5.2 K 0 % 0 % 0 % 0 m²/s² 0 0 9.49 2
08:00 12 J/kg 4.6 K 0 % 0 % 0 % 0 m²/s² 0 0 8.68 0
09:00 14 J/kg 4.5 K 0 % 0 % 0 % 0 m²/s² 0 0 8.28 3
10:00 15 J/kg 4.5 K 0 % 0 % 0 % 0 m²/s² 0 0 7.8 3
11:00 32 J/kg 4.4 K 0 % 0 % 0 % 0 m²/s² 0 0 6.98 3
12:00 32 J/kg 4.6 K 0 % 0 % 0 % 0 m²/s² 0 0 7.06 3
13:00 43 J/kg 4.4 K 0 % 0 % 0 % 0 m²/s² 0 0 6.59 3
14:00 26 J/kg 4.6 K 0 % 0 % 0 % 0 m²/s² 0 0 7.15 3
15:00 94 J/kg 3.4 K 0 % 0 % 0 % 0 m²/s² 0 0 5.86 2
16:00 74 J/kg 4.1 K 0 % 0 % 0 % 0 m²/s² 0 0 6.8 3
17:00 111 J/kg 3.1 K 0 % 0 % 0 % 0 m²/s² 0 0 6.1 3
18:00 59 J/kg 4.1 K 0 % 0 % 0 % 0 m²/s² 0 0 6.65 3
19:00 54 J/kg 4.1 K 0 % 0 % 0 % 0 m²/s² 0 0 6.29 3
20:00 37 J/kg 4.3 K 0 % 0 % 0 % 0 m²/s² 0 0 6.85 2
21:00 46 J/kg 4.3 K 0 % 0 % 0 % 0 m²/s² 0 0 7.21 2
22:00 18 J/kg 5.1 K 0 % 0 % 0 % 0 m²/s² 0 0 7.56 3
23:00 0 J/kg 5.8 K 0 % 0 % 0 % 0 m²/s² 0 0 8.05 3
 04:33     22:05    Daglengte: 17:32 Woensdag 19 Jun
00:00 0 J/kg 6.2 K 0 % 0 % 0 % 0 m²/s² 0 0 8.6 3
01:00 0 J/kg 5.8 K 0 % 0 % 0 % 0 m²/s² 0 0 8.89 3
02:00 0 J/kg 5.8 K 0 % 0 % 0 % 0 m²/s² 0 0 9.4 3
03:00 0 J/kg 5.7 K 0 % 0 % 0 % 0 m²/s² 0 0 8.7 3
04:00 0 J/kg 5.9 K 0 % 0 % 0 % 0 m²/s² 0 0 9.23 3
05:00 0 J/kg 6.0 K 0 % 0 % 0 % 0 m²/s² 0 0 9.42 3
06:00 0 J/kg 6.1 K 0 % 0 % 0 % 0 m²/s² 0 0 9.88 3
07:00 0 J/kg 6.0 K 0 % 0 % 0 % 0 m²/s² 0 0 10.2 3
08:00 0 J/kg 6.2 K 0 % 0 % 0 % 0 m²/s² 0 0 10.64 3
09:00 1 J/kg 6.4 K 0 % 0 % 0 % 0 m²/s² 0 0 10.84 3
10:00 2 J/kg 6.3 K 0 % 0 % 0 % 0 m²/s² 0 0 10.5 3
11:00 28 J/kg 5.8 K 0 % 0 % 0 % 0 m²/s² 0 0 9.79 3
12:00 54 J/kg 5.2 K 0 % 0 % 0 % 0 m²/s² 0 0 9.1 3
13:00 82 J/kg 4.6 K 0 % 0 % 0 % 0 m²/s² 0 0 8.38 80
14:00 83 J/kg 4.3 K 0 % 0 % 0 % 0 m²/s² 0 0 8.08 3
15:00 63 J/kg 4.6 K 0 % 0 % 0 % 0 m²/s² 0 0 9.13 80
16:00 46 J/kg 4.9 K 0 % 0 % 0 % 0 m²/s² 0 0 10.33 80
17:00 61 J/kg 4.3 K 0 % 0 % 0 % 0 m²/s² 0 0 9.58 80
18:00 81 J/kg 4.1 K 0 % 0 % 0 % 0 m²/s² 0 0 6.83 80
Temp Baro Wind Neerslag
  EWN Forecast EWN WRFDA DWD ICON FMI HIRLAM MET Norway GFS
 04:33     22:04    Daglengte: 17:31 Vandaag
19:00 14.5° 1008.2 hPa 3.5 m/s 0.0 mm 14.3° 1007.1 hPa 3.1 m/s 1.1 mm 15.0° 1008.3 hPa 3.0 m/s -1.5 mm 14.8° 1008.5 hPa 4.5 m/s 0.0 mm 14.7° 1007.8 hPa 3.6 m/s 0.0 mm 14.3° 1008.1 hPa 2.6 m/s
22:00 12.2° 1007.5 hPa 2.3 m/s 0.0 mm 12.8° 1006.5 hPa 2.7 m/s 3.7 mm 13.1° 1007.7 hPa 2.0 m/s 0.0 mm 12.2° 1008.5 hPa 1.7 m/s 0.0 mm 12.2° 1006.7 hPa 2.3 m/s 0.5 mm 11.5° 1007.7 hPa 2.5 m/s
 04:33     22:05    Daglengte: 17:32 Morgen
01:00 11.5° 1006.0 hPa 3.3 m/s 3.3 mm 12.5° 1004.2 hPa 5.0 m/s 7.2 mm 11.7° 1006.5 hPa 2.2 m/s 3.0 mm 11.4° 1007.0 hPa 2.1 m/s 0.0 mm 11.5° 1005.3 hPa 3.4 m/s 3.0 mm 11.6° 1006.3 hPa 3.8 m/s
04:00 10.9° 1006.8 hPa 5.5 m/s 1.6 mm 11.0° 1005.0 hPa 5.9 m/s 10.1 mm 11.3° 1007.2 hPa 4.6 m/s 0.4 mm 11.5° 1006.0 hPa 2.1 m/s 0.0 mm 10.6° 1006.9 hPa 5.9 m/s 0.4 mm 10.0° 1006.0 hPa 5.0 m/s
07:00 11.3° 1007.7 hPa 4.5 m/s 0.0 mm 11.2° 1005.9 hPa 6.3 m/s 10.7 mm 11.1° 1007.7 hPa 3.5 m/s 0.2 mm 11.7° 1007.5 hPa 1.7 m/s 0.0 mm 11.5° 1007.8 hPa 4.6 m/s 0.0 mm 10.6° 1007.0 hPa 5.6 m/s
10:00 13.9° 1008.0 hPa 6.3 m/s 0.0 mm 13.6° 1006.7 hPa 7.2 m/s 11.9 mm 13.3° 1008.2 hPa 5.7 m/s 0.1 mm 14.9° 1008.4 hPa 7.7 m/s 0.0 mm 14.2° 1007.5 hPa 4.4 m/s 0.3 mm 12.3° 1007.7 hPa 5.8 m/s
13:00 15.1° 1008.0 hPa 6.5 m/s 4.1 mm 16.1° 1006.4 hPa 7.7 m/s 12.6 mm 15.6° 1007.8 hPa 6.1 m/s 0.3 mm 15.0° 1010.0 hPa 7.0 m/s 0.0 mm 15.1° 1007.6 hPa 5.3 m/s 3.3 mm 15.2° 1007.5 hPa 7.3 m/s
16:00 15.1° 1008.1 hPa 8.3 m/s 4.9 mm 16.2° 1005.9 hPa 9.4 m/s 14.3 mm 15.1° 1008.0 hPa 6.8 m/s 1.1 mm 15.3° 1010.2 hPa 7.4 m/s 0.0 mm 15.2° 1007.4 hPa 9.5 m/s 2.9 mm 15.4° 1007.2 hPa 7.8 m/s
19:00 13.8° 1008.9 hPa 6.0 m/s 6.0 mm 11.7° 1007.5 hPa 6.7 m/s 23.5 mm 13.8° 1008.8 hPa 4.8 m/s 1.8 mm 15.5° 1010.5 hPa 6.9 m/s 0.0 mm 13.9° 1008.7 hPa 5.2 m/s 0.9 mm 13.6° 1007.8 hPa 5.6 m/s
22:00 12.1° 1010.0 hPa 3.0 m/s 2.9 mm 11.9° 1008.3 hPa 4.0 m/s 36.2 mm 12.0° 1009.9 hPa 2.6 m/s 0.8 mm 14.1° 1011.3 hPa 4.5 m/s 0.0 mm 11.6° 1010.2 hPa 2.3 m/s 0.0 mm 10.9° 1009.7 hPa 2.9 m/s
 04:33     22:05    Daglengte: 17:32 Dinsdag 18 Jun
01:00 11.0° 1010.2 hPa 2.5 m/s 0.0 mm 11.8° 1008.4 hPa 2.6 m/s 36.9 mm 11.0° 1010.2 hPa 1.7 m/s 0.4 mm 12.7° 1010.8 hPa 3.1 m/s 0.0 mm 9.3° 1010.5 hPa 1.7 m/s 0.0 mm 9.3° 1010.1 hPa 2.3 m/s
04:00 10.5° 1009.9 hPa 3.1 m/s 0.0 mm 10.3° 1008.7 hPa 3.2 m/s 38.1 mm 10.7° 1009.8 hPa 2.6 m/s 0.8 mm 12.5° 1010.6 hPa 3.8 m/s 0.0 mm 9.7° 1010.1 hPa 2.2 m/s 0.0 mm 8.9° 1010.0 hPa 2.7 m/s
07:00 11.5° 1009.9 hPa 4.4 m/s 0.0 mm 10.9° 1008.3 hPa 5.1 m/s 38.3 mm 11.4° 1009.6 hPa 4.2 m/s 0.2 mm 12.5° 1010.5 hPa 4.5 m/s 0.0 mm 11.6° 1010.6 hPa 3.3 m/s 0.3 mm 10.3° 1009.4 hPa 5.0 m/s
10:00 13.3° 1010.3 hPa 5.9 m/s 0.0 mm 13.5° 1008.5 hPa 7.1 m/s 38.3 mm 11.6° 1010.1 hPa 6.0 m/s 0.0 mm 14.4° 1010.8 hPa 5.2 m/s 0.0 mm 13.8° 1010.7 hPa 5.3 m/s 0.0 mm 13.5° 1009.7 hPa 7.2 m/s
13:00 15.1° 1010.4 hPa 6.0 m/s 0.0 mm 15.7° 1008.5 hPa 7.1 m/s 38.3 mm 13.7° 1010.5 hPa 5.7 m/s 0.0 mm 15.5° 1010.8 hPa 5.7 m/s 0.0 mm 15.7° 1010.7 hPa 5.7 m/s 0.0 mm 11.5° 1010.0 hPa 5.8 m/s
16:00 15.5° 1010.1 hPa 5.6 m/s 0.0 mm 14.6° 1008.6 hPa 5.1 m/s 39.1 mm 15.5° 1010.3 hPa 5.0 m/s 0.0 mm 16.4° 1010.3 hPa 5.7 m/s 0.0 mm 15.3° 1009.9 hPa 6.3 m/s
19:00 14.9° 1009.8 hPa 4.0 m/s 0.0 mm 13.2° 1008.4 hPa 4.8 m/s 41.5 mm 15.2° 1010.2 hPa 3.7 m/s 0.1 mm 15.3° 1009.9 hPa 4.0 m/s 0.0 mm 14.1° 1009.8 hPa 4.7 m/s
22:00 12.1° 1010.2 hPa 2.2 m/s 0.0 mm 12.6° 1008.8 hPa 2.1 m/s 42.8 mm 13.1° 1010.7 hPa 2.7 m/s 0.1 mm 11.9° 1010.3 hPa 1.6 m/s 0.0 mm 11.0° 1010.6 hPa 1.9 m/s
 04:33     22:05    Daglengte: 17:32 Woensdag 19 Jun
01:00 10.7° 1009.8 hPa 1.5 m/s 0.0 mm 10.7° 1008.0 hPa 1.9 m/s 42.8 mm 11.6° 1010.0 hPa 1.3 m/s 0.0 mm 9.7° 1010.0 hPa 1.6 m/s 0.0 mm 10.1° 1009.9 hPa 1.2 m/s
04:00 9.9° 1008.7 hPa 1.5 m/s 0.0 mm 9.8° 1007.0 hPa 0.6 m/s 42.8 mm 11.0° 1009.0 hPa 0.4 m/s 0.0 mm 8.8° 1009.1 hPa 1.7 m/s 0.0 mm 10.2° 1009.1 hPa 0.6 m/s
07:00 11.1° 1008.2 hPa 0.6 m/s 0.0 mm 10.9° 1006.0 hPa 0.5 m/s 42.8 mm 11.6° 1008.5 hPa 0.4 m/s 0.0 mm 11.0° 1008.5 hPa 0.1 m/s 0.0 mm 11.6° 1007.9 hPa 0.5 m/s
10:00 13.3° 1007.3 hPa 1.4 m/s 9.8 mm 13.9° 1005.9 hPa 0.6 m/s 42.8 mm 14.3° 1007.3 hPa 0.8 m/s 0.0 mm 13.2° 1007.6 hPa 1.3 m/s 15.1° 1007.4 hPa 1.1 m/s
13:00 15.4° 1006.1 hPa 2.6 m/s 4.9 mm 17.0° 1004.1 hPa 2.0 m/s 42.8 mm 15.3° 1006.1 hPa 1.5 m/s 0.2 mm 15.3° 1006.8 hPa 2.5 m/s 16.7° 1006.2 hPa 3.1 m/s
16:00 15.4° 1005.4 hPa 3.2 m/s 14.8 mm 17.6° 1003.1 hPa 4.3 m/s 42.8 mm 15.5° 1005.1 hPa 0.7 m/s 0.8 mm 14.9° 1006.1 hPa 3.5 m/s 16.6° 1005.6 hPa 3.9 m/s
19:00 15.0° 1004.7 hPa 3.9 m/s 15.1 mm 16.5° 1002.5 hPa 4.4 m/s 42.8 mm 15.2° 1004.4 hPa 1.0 m/s 1.3 mm 14.6° 1005.5 hPa 4.5 m/s 15.4° 1004.7 hPa 4.1 m/s
22:00 12.0° 1005.4 hPa 2.8 m/s 13.8 mm 12.1° 1005.4 hPa 2.8 m/s 11.6° 1005.2 hPa 2.4 m/s 13.8 mm
 04:33     22:06    Daglengte: 17:33 Donderdag 20 Jun
01:00 10.8° 1005.2 hPa 2.0 m/s 13.9 mm 10.8° 1005.3 hPa 2.0 m/s 10.5° 1004.5 hPa 2.4 m/s 13.9 mm
04:00 10.6° 1004.8 hPa 3.1 m/s 14.1 mm 10.7° 1004.8 hPa 3.1 m/s 9.1° 1004.5 hPa 2.2 m/s 14.1 mm
07:00 10.6° 1004.4 hPa 4.2 m/s 14.2 mm 10.6° 1004.4 hPa 4.3 m/s 10.0° 1004.4 hPa 2.5 m/s 14.2 mm
10:00 11.8° 1005.2 hPa 5.0 m/s 14.3 mm 11.6° 1005.2 hPa 5.0 m/s 12.9° 1005.0 hPa 4.6 m/s 14.3 mm
13:00 12.9° 1006.0 hPa 5.7 m/s 14.8 mm 12.7° 1006.1 hPa 5.7 m/s 14.5° 1005.2 hPa 5.2 m/s 14.8 mm
16:00 12.4° 1006.5 hPa 6.0 m/s 15.5 mm 12.1° 1006.6 hPa 6.1 m/s 15.2° 1005.5 hPa 5.2 m/s 15.5 mm
19:00 11.7° 1007.0 hPa 6.2 m/s 16.0 mm 11.5° 1007.1 hPa 6.4 m/s 14.1° 1005.8 hPa 4.1 m/s 16.0 mm
22:00 10.3° 1008.6 hPa 5.2 m/s 16.0 mm 10.4° 1008.8 hPa 5.4 m/s 9.8° 1007.4 hPa 2.8 m/s 16.0 mm
 04:33     22:06    Daglengte: 17:33 Vrijdag 21 Jun
01:00 9.2° 1010.2 hPa 4.2 m/s 16.0 mm 9.3° 1010.4 hPa 4.4 m/s 7.7° 1008.3 hPa 2.6 m/s 16.0 mm
04:00 9.4° 1011.6 hPa 4.1 m/s 16.0 mm 9.6° 1011.8 hPa 4.2 m/s 7.5° 1009.6 hPa 2.5 m/s 16.0 mm
07:00 9.8° 1012.9 hPa 4.0 m/s 16.0 mm 9.8° 1013.1 hPa 4.1 m/s 9.6° 1010.6 hPa 3.3 m/s 16.0 mm
10:00 11.6° 1014.4 hPa 4.6 m/s 16.2 mm 11.5° 1014.7 hPa 4.5 m/s 12.8° 1012.2 hPa 5.2 m/s 16.2 mm
13:00 13.3° 1016.0 hPa 5.0 m/s 16.2 mm 13.2° 1016.2 hPa 5.0 m/s 14.5° 1013.3 hPa 5.5 m/s 16.2 mm
16:00 13.2° 1017.2 hPa 5.2 m/s 16.3 mm 13.0° 1017.5 hPa 5.2 m/s 15.4° 1014.7 hPa 5.2 m/s 16.3 mm
19:00 12.9° 1018.5 hPa 5.4 m/s 16.3 mm 12.8° 1018.7 hPa 5.5 m/s 13.8° 1015.7 hPa 4.7 m/s 16.3 mm
22:00 10.1° 1020.2 hPa 3.7 m/s 16.3 mm 10.2° 1020.5 hPa 3.8 m/s 8.9° 1017.4 hPa 2.3 m/s 16.3 mm
 04:34     22:06    Daglengte: 17:32 Zaterdag 22 Jun
01:00 7.5° 1022.0 hPa 2.1 m/s 16.3 mm 7.6° 1022.3 hPa 2.1 m/s 6.7° 1018.3 hPa 2.0 m/s 16.3 mm
04:00 8.5° 1022.8 hPa 1.7 m/s 16.3 mm 8.7° 1023.1 hPa 1.7 m/s 5.8° 1018.8 hPa 1.2 m/s 16.3 mm
07:00 9.7° 1023.6 hPa 1.2 m/s 16.3 mm 9.8° 1024.0 hPa 1.3 m/s 8.9° 1019.3 hPa 0.3 m/s 16.3 mm
10:00 12.6° 1024.1 hPa 1.8 m/s 16.3 mm 12.4° 1024.5 hPa 1.8 m/s 14.7° 1019.5 hPa 1.3 m/s 16.3 mm
13:00 15.2° 1024.5 hPa 2.3 m/s 16.7 mm 15.1° 1025.0 hPa 2.3 m/s 16.7° 1019.4 hPa 2.0 m/s 16.7 mm
16:00 15.7° 1024.2 hPa 2.2 m/s 17.6 mm 15.6° 1024.7 hPa 2.1 m/s 15.6° 1018.7 hPa 2.3 m/s 17.6 mm
19:00 16.1° 1023.9 hPa 1.9 m/s 18.1 mm 16.2° 1024.4 hPa 2.0 m/s 15.3° 1018.1 hPa 1.2 m/s 18.1 mm
22:00 13.6° 1024.5 hPa 1.2 m/s 18.4 mm 13.8° 1025.0 hPa 1.3 m/s 12.2° 1018.7 hPa 0.5 m/s 18.4 mm
 04:34     22:06    Daglengte: 17:32 Zondag 23 Jun
01:00 11.2° 1025.0 hPa 0.7 m/s 18.4 mm 11.3° 1025.6 hPa 0.6 m/s 10.6° 1018.6 hPa 1.3 m/s 18.4 mm
04:00 11.0° 1025.0 hPa 0.9 m/s 18.4 mm 11.2° 1025.7 hPa 0.9 m/s 9.3° 1017.8 hPa 1.3 m/s 18.4 mm
07:00 11.0° 1025.0 hPa 1.3 m/s 18.4 mm 11.0° 1025.7 hPa 1.2 m/s 10.9° 1017.3 hPa 1.9 m/s 18.4 mm
10:00 14.2° 1024.9 hPa 1.1 m/s 18.6 mm 14.2° 1025.7 hPa 0.9 m/s 15.1° 1016.9 hPa 3.1 m/s 18.6 mm
13:00 17.1° 1024.8 hPa 0.8 m/s 20.2 mm 17.3° 1025.6 hPa 0.7 m/s 14.8° 1016.5 hPa 2.2 m/s 20.2 mm
16:00 17.0° 1024.6 hPa 1.9 m/s 21.3 mm 16.9° 1025.4 hPa 1.8 m/s 17.6° 1015.1 hPa 2.6 m/s 21.3 mm
19:00 16.4° 1024.3 hPa 3.0 m/s 24.0 mm 16.5° 1025.3 hPa 2.9 m/s 15.8° 1013.8 hPa 3.8 m/s 24.0 mm
 04:34     22:06    Daglengte: 17:32 Maandag 24 Jun
01:00 11.4° 1025.8 hPa 3.0 m/s 24.4 mm 11.4° 1027.1 hPa 2.9 m/s 11.1° 1011.6 hPa 4.3 m/s 24.4 mm
07:00 11.2° 1026.4 hPa 3.5 m/s 31.7 mm 11.1° 1028.2 hPa 3.4 m/s 12.3° 1006.8 hPa 4.7 m/s 31.7 mm
13:00 17.2° 1026.3 hPa 3.5 m/s 38.3 mm 17.5° 1028.4 hPa 3.5 m/s 13.4° 1003.7 hPa 3.5 m/s 38.3 mm
19:00 17.6° 1026.0 hPa 2.4 m/s 41.9 mm 18.0° 1028.3 hPa 2.3 m/s 13.8° 1001.2 hPa 3.0 m/s 41.9 mm
 04:35     22:06    Daglengte: 17:31 Dinsdag 25 Jun
01:00 11.0° 1027.6 hPa 1.6 m/s 50.2 mm 10.8° 1030.1 hPa 1.5 m/s 12.7° 1000.1 hPa 2.3 m/s 50.2 mm
07:00 12.1° 1027.3 hPa 0.5 m/s 53.3 mm 12.0° 1029.8 hPa 0.5 m/s 13.0° 999.4 hPa 0.9 m/s 53.3 mm
13:00 19.6° 1027.2 hPa 2.6 m/s 55.3 mm 19.9° 1029.5 hPa 2.6 m/s 16.3° 1002.0 hPa 2.5 m/s 55.3 mm
19:00 18.8° 1026.6 hPa 3.7 m/s 57.6 mm 19.3° 1028.5 hPa 3.9 m/s 13.2° 1005.6 hPa 1.5 m/s 57.6 mm
 04:35     22:06    Daglengte: 17:31 Woensdag 26 Jun
01:00 11.1° 1027.4 hPa 2.0 m/s 58.4 mm 11.1° 1028.9 hPa 1.9 m/s 11.0° 1010.5 hPa 2.8 m/s 58.4 mm
07:00 10.0° 1014.7 hPa 2.6 m/s 58.4 mm 10.0° 1014.7 hPa 2.6 m/s 58.4 mm
13:00 16.0° 1024.0 hPa 1.9 m/s 0.2 mm
19:00 15.6° 1022.8 hPa 2.3 m/s 0.3 mm
 04:36     22:06    Daglengte: 17:30 Donderdag 27 Jun
01:00 9.0° 1022.2 hPa 0.7 m/s 0.4 mm
07:00 10.6° 1020.4 hPa 0.8 m/s 0.6 mm
13:00 15.4° 1019.3 hPa 1.6 m/s 0.8 mm
19:00 14.6° 1017.3 hPa 1.5 m/s 1.5 mm
 04:36     22:06    Daglengte: 17:30 Vrijdag 28 Jun
01:00 10.2° 1016.3 hPa 1.3 m/s 1.3 mm
07:00 11.3° 1014.9 hPa 2.0 m/s 1.1 mm
13:00 15.3° 1014.7 hPa 3.0 m/s 0.9 mm
19:00 15.6° 1013.9 hPa 3.0 m/s 1.0 mm
 04:37     22:05    Daglengte: 17:28 Zaterdag 29 Jun
01:00 10.4° 1014.0 hPa 1.9 m/s 0.8 mm
07:00 11.5° 1013.2 hPa 1.9 m/s 0.7 mm
13:00 16.4° 1012.9 hPa 2.9 m/s 0.7 mm
19:00 15.8° 1012.1 hPa 2.9 m/s 0.8 mm
 04:38     22:05    Daglengte: 17:27 Zondag 30 Jun
01:00 10.3° 1011.9 hPa 0.9 m/s 0.7 mm
07:00 11.6° 1010.5 hPa 0.8 m/s 1.0 mm
13:00 15.8° 1010.5 hPa 2.2 m/s 1.3 mm
19:00 15.5° 1010.4 hPa 2.3 m/s 1.9 mm
 04:39     22:05    Daglengte: 17:26 Maandag 01 Jul
01:00 9.7° 1011.0 hPa 1.1 m/s 0.7 mm
07:00 10.9° 1011.0 hPa 1.4 m/s 0.5 mm
13:00 15.8° 1011.4 hPa 2.6 m/s 0.7 mm
FMI Hirlam - 7.5 km EWN WRFDA - 12 km DWD ICON - 7 km GFS - 25 km Basiskaart